Flag for Finland Weather past 2 weeks in Helsinki, Finland

Now
34 °F

Passing clouds.


Feels Like: 26 °F
Forecast: 31 / 36 °F
Wind: 9 mph from Southeast

Location: Helsinki Malmi Airport

Current Time: Jan 30, 2015 at 8:28:58 AM

Latest Report: Jan 30, 2015 at 7:50 AM


Visibility: N/A

Pressure: 29.18 "Hg

Humidity: 81%

Dew point: 28 °F

Location of HelsinkiLocation

Historic Weather in Helsinki — Graph

°F

Helsinki temperature yesterday

Maximum temperature yesterday: 34 °F (at 12:20 AM)
Minimum temperature yesterday: 32 °F (at 6:20 AM)
Average temperature yesterday: 33 °F

Past Weeks' High & Low Weather Summary

 TemperatureHumidityPressure
High39 °F (Jan 16, 1:20 PM)100% (Jan 16, 4:50 AM)30.42 "Hg (Jan 16, 4:50 AM)
Low14 °F (Jan 21, 9:20 PM)65% (Jan 27, 12:50 PM)29.09 "Hg (Jan 29, 1:20 PM)
Average31 °F86%29.86 "Hg
* Reported Jan 15 7:20 AM — Jan 30 7:20 AM, Helsinki, Weather by CustomWeather, © 2014

Note: Actual official high and low records may vary slightly from our data, if they occured in-between our weather recording intervals... More about our weather records

Advertising

Helsinki weather history for previous 24 hours

 ConditionsComfort  
Time TempWeatherWind HumidityBarometerVisibility
7:20 AM
Jan 30
34 °FOvercast.8 mph81%29.18 "HgN/A
6:50 AM34 °FPassing clouds.9 mph81%29.18 "HgN/A
6:20 AM34 °FPassing clouds.12 mph81%29.18 "HgN/A
5:50 AM34 °FOvercast.9 mph81%29.18 "HgN/A
5:20 AM34 °FMostly cloudy.9 mph81%29.18 "HgN/A
4:50 AM34 °FOvercast.8 mph81%29.15 "HgN/A
4:20 AM34 °FOvercast.9 mph87%29.15 "HgN/A
3:50 AM34 °FPassing clouds.8 mph87%29.15 "HgN/A
3:20 AM34 °FOvercast.8 mph87%29.15 "HgN/A
2:50 AM34 °FOvercast.7 mph87%29.15 "HgN/A
2:20 AM34 °FOvercast.8 mph87%29.15 "HgN/A
1:50 AM34 °FSprinkles. Overcast.9 mph87%29.15 "HgN/A
1:20 AM34 °FOvercast.8 mph93%29.15 "HgN/A
12:50 AM34 °FOvercast.10 mph93%29.15 "HgN/A
12:20 AM34 °FOvercast.9 mph93%29.15 "HgN/A
11:50 PM
Jan 29
34 °FOvercast.10 mph87%29.15 "HgN/A
11:20 PM34 °FOvercast.9 mph87%29.12 "HgN/A
10:50 PM34 °FOvercast.10 mph87%29.12 "HgN/A
10:20 PM34 °FOvercast.10 mph87%29.12 "HgN/A
9:50 PM34 °FOvercast.12 mph87%29.12 "HgN/A
9:20 PM34 °FOvercast.8 mph87%29.12 "HgN/A
8:50 PM34 °FPassing clouds.9 mph87%29.12 "HgN/A
8:20 PM34 °FPassing clouds.10 mph87%29.12 "HgN/A
7:50 PM34 °FPassing clouds.13 mph87%29.12 "HgN/A
7:20 PM34 °FPassing clouds.10 mph87%29.12 "HgN/A
6:50 PM34 °FPassing clouds.10 mph81%29.12 "HgN/A
6:20 PM34 °FLight rain. Passing clouds.10 mph81%29.12 "HgN/A
5:50 PM34 °FLight rain. Passing clouds.10 mph81%29.12 "HgN/A
5:20 PM34 °FLight rain. Passing clouds.12 mph81%29.09 "Hg5 mi
4:59 PM34 °FLight rain. Passing clouds.10 mph81%29.09 "Hg5 mi
4:20 PM34 °FLight rain. Partly sunny.10 mph81%29.09 "Hg5 mi
3:50 PM34 °FLight rain. Partly sunny.12 mph81%29.09 "HgN/A
3:20 PM34 °FLight rain. Partly sunny.12 mph81%29.09 "Hg6 mi
2:50 PM34 °FLight rain. Partly sunny.12 mph81%29.09 "HgN/A
2:20 PM32 °FLight rain. Partly sunny.10 mph87%29.09 "Hg5 mi
1:50 PM32 °FLight rain. Partly sunny.10 mph87%29.09 "Hg2 mi
1:20 PM32 °FLight rain. Partly sunny.13 mph80%29.09 "Hg4 mi
12:50 PM32 °FPartly sunny.13 mph80%29.12 "HgN/A
12:20 PM32 °FPartly sunny.13 mph80%29.12 "HgN/A
11:50 AM32 °FPartly sunny.14 mph80%29.12 "HgN/A
11:20 AM32 °FPartly sunny.14 mph80%29.12 "HgN/A
10:50 AM32 °FPartly sunny.15 mph80%29.12 "HgN/A
10:20 AM32 °FPartly sunny.13 mph80%29.12 "HgN/A
9:50 AM32 °FPartly sunny.13 mph80%29.12 "HgN/A
9:20 AM32 °FPartly sunny.14 mph87%29.15 "HgN/A
8:50 AM32 °FPartly sunny.13 mph80%29.15 "HgN/A
8:20 AM32 °FPassing clouds.12 mph87%29.15 "HgN/A
Weather by CustomWeather, © 2014

See weather overviewHow to use our weather pages